Location: G�rlitz
(51.1670°N, 15.0000°E)
Time: 19:54:42
(UTC+01:00)

Envisat - Pass Details

Date: 16 February 2026
Orbit: 761 x 763 km, 98.4° (Epoch: 11 March)

Event Time Altitude Azimuth Distance (km) Brightness Sun altitude
Rises 04:13:13 0° 6° (N) 3,238 6.5 -28.4°
Reaches altitude 10° 04:15:54 10° 354° (N) 2,307 5.6 -28.0°
Enters shadow 04:16:56 15° 345° (NNW) 1,998 5.1 -27.8°
